Regional Weather Roundup
Issued by NWS

Home | Current Version | Previous Version | Graphics & Text | Print | Product List | Glossary On
Versions: 1 2 3 4 5 6 7 8 9 10 11 12 13 14 15 16 17 18 19 20 21 22 23 24 25 26 27
000
ASUS45 KBOU 291807
RWRCO

WEATHER ROUNDUP FOR COLORADO
NATIONAL WEATHER SERVICE DENVER/BOULDER CO
1200 PM MDT SUN MAY 29 2016

NOTE: "FAIR" INDICATES FEW OR NO CLOUDS BELOW 12000 FEET WITH NO
SIGNIFICANT WEATHER AND/OR OBSTRUCTIONS TO VISIBILITY.

COZ001>005-013-030-031-291900-
...NORTHWEST COLORADO...

CITY           SKY/WX    TMP DP  RH WIND       PRES   REMARKS
CRAIG          FAIR      69  37  30 NW6       30.20F
HAYDEN         FAIR      64  34  32 CALM      30.21F
MEEKER         FAIR      71  33  24 MISG      30.19F
MOUNT WERNER   NOT AVBL
STEAMBOAT SPGS FAIR      65  33  31 W6        30.23F
WALDEN         NOT AVBL
$$

COZ006>008-011-291900-
...WEST CENTRAL VALLEYS...

CITY           SKY/WX    TMP DP  RH WIND       PRES   REMARKS
GRAND JUNCTION FAIR      70  35  27 S8        30.13F
MONTROSE       FAIR      73  34  23 VRB3      30.17F
EAGLE          SUNNY     66  32  28 CALM      30.23F
RIFLE          FAIR      71  35  26 CALM      30.16F
DELTA          FAIR      77  31  18 CALM      30.13F
NUCLA          FAIR      73  28  19 N7        30.19F
$$

COZ017>023-064>068-291900-
...SOUTHWEST COLORADO...

CITY           SKY/WX    TMP DP  RH WIND       PRES   REMARKS
DURANGO        FAIR      72  23  16 E5        30.20F
CORTEZ         FAIR      76  28  17 SW15      30.15F
PAGOSA SPRINGS FAIR      68  17  13 S3        30.27F
TELLURIDE      PTSUNNY   53  25  33 NE6       30.39R
WOLF CREEK PAS PTSUNNY   45  18  33 SW9G23    30.53F
$$

COZ009-010-012-014-032>034-037-058>063-291900-
...CENTRAL COLORADO...

CITY           SKY/WX    TMP DP  RH WIND       PRES   REMARKS
ASPEN          FAIR      68  28  22 N9        30.26F
BUENA VISTA    FAIR      64  24  21 N3        30.28F
COPPER MTN     NOT AVBL
BERTHOUD PASS  MIX PCPN  36  27  69 W15G22    30.52F
COTTONWOOD PAS FAIR      61  21  21 N3        30.38F
GUNNISON       FAIR      63  28  27 SW3       30.30F
KREMMLING      FAIR      66  28  24 S6        30.26F
LEADVILLE      PTSUNNY   54  16  22 VRB7G16   30.37F
MONARCH PASS   PTSUNNY   41  21  45 SW13G20   30.62R
SALIDA         FAIR      68  28  22 S3        30.33F
SUNLIGHT       FAIR      52  27  37 CALM      30.48S
WILKERSON PASS FAIR      52  28  40 SW7       30.50F
$$

COZ069>075-291900-
...SAN LUIS VALLEY/SANGRE DE CRISTO MOUNTAINS...

CITY           SKY/WX    TMP DP  RH WIND       PRES   REMARKS
ALAMOSA        FAIR      65  30  27 VRB3      30.27F
LA VETA PASS   FAIR      59  25  27 S3        30.44S
SAGUACHE       PTSUNNY   61  30  31 W3        30.32S
$$

COZ035-036-038>040-291900-
...NORTHERN COLORADO FRONT RANGE...

CITY           SKY/WX    TMP DP  RH WIND       PRES   REMARKS
DENVER INTL AP FAIR      74  37  26 CALM      30.14F
DMNS CITY PARK   N/A     76  33  21 W5        30.12F
AURORA         MOSUNNY   73  40  30 E7        30.15F
FRONT RANGE AP MOSUNNY   72  41  33 NE5       30.16F
ERIE MUNI ARPT FAIR      73  44  35 CALM      30.13F
BOULDER MUN AP FAIR      72  39  30 E6        30.14F
CENTENNIAL     FAIR      73  31  21 VRB3      30.15F
BROOMFIELD     MOSUNNY   70  39  32 CALM      30.17F
FORT COLLINS   FAIR      70  46  43 CALM      30.14F
LONGMONT       FAIR      76  39  26 E5        30.14F
$$

COZ041-046-047-076>085-087-088-291900-
...PIKES PEAK/PALMER DIVIDE AND SOUTHERN FOOTHILLS...

CITY           SKY/WX    TMP DP  RH WIND       PRES   REMARKS
COLO. SPRINGS  PTSUNNY   70  42  36 S14       30.21F
A. F. ACADEMY  FAIR      70  37  30 S13       30.20F
SCHRIEVER AFB  NOT AVBL
ELLICOTT       FAIR     N/A N/A N/A S7        30.20F
FALCON         FAIR      68  34  28 S12G18    30.25F
FORT CARSON    FAIR      73  44  35 SE15G22   30.17F
LIMON          FAIR      71  48  43 SE7       30.16F
MONUMENT HILL  FAIR      68  36  30 SW12G20   30.24F
TRINIDAD       FAIR      74  37  26 SE9       30.17F
$$

COZ042>045-048>051-090-091-291900-
...NORTHEAST COLORADO...

CITY           SKY/WX    TMP DP  RH WIND       PRES   REMARKS
GREELEY ARPT   FAIR      72  45  37 E6        30.13F
AKRON          FAIR      74  44  34 CALM      30.14F
BURLINGTON     FAIR      78  50  37 S17       30.12F
WRAY           FAIR      79  48  34 SE7       30.10F
STERLING       FAIR      73  50  43 SW5       30.10F
HOLYOKE        NOT AVBL
FORT MORGAN    FAIR      73  49  43 SE3       30.13F
$$

COZ086-089-092>099-291900-
...SOUTHEAST COLORADO...

CITY           SKY/WX    TMP DP  RH WIND       PRES   REMARKS
PUEBLO         FAIR      74  46  36 SW3       30.13F
LA JUNTA       FAIR      76  49  38 VRB6      30.11F
LAMAR          FAIR      80  48  32 VRB7      30.07F
SPRINGFIELD      N/A     76  53  44 S15G24    30.14F
$$




USA.gov is the U.S. government's official web portal to all federal, state and local government web resources and services.